SHIJIAN-17 (SJ-17) (41838 NORAD) Tracking and Keplerian Element Data

This shows tracking and keplerian element data for the satellite.

Feedback or suggestion? Click here.




ElementValue
Catalog41838
NameSHIJIAN-17 (SJ-17)
Epoch Orbit2157
Epoch Day269.93773551
Epoch Year2022
RAAN88.4603
Inclination2.2779
Eccentricity0.0002266
Argument of Perigee243.7932
Mean Anonmoly105.2818
Mean Motion1.00273603
Decay Rate-2.6E-06
L11 41838U 16065A 22269.93773551 -.00000260 00000+0 00000+0 0 9990
L22 41838 2.2779 88.4603 0002266 243.7932 105.2818 1.00273603 21570

Live tracking and technical data element details for SHIJIAN-17 (SJ-17) (NORAD 41838). SHIJIAN-17 (SJ-17) can be tracked NOW for your location showing map with azimuth and elevation plus other details from your city location.

Track the satellite on the map from your city or location and see movement details for azimuth, elevation, latitude, longitude, range, height, and movement on the map or in text.







IsCatalogInMostPopularTable: catalog: 41838, numindb: 680
Update: records affected: 1



GetName: 41838 SHIJIAN-17 (SJ-17)

Hit Count: updated at: Thu, 29 Sep 2022 12:03:47 GMT